Regional Weather Roundup
Issued by NWS Newport/Morehead, NC

Current Version | Previous Version | Graphics & Text | Print | Product List | Glossary Off
Versions: 1 2 3 4 5 6 7 8 9 10 11 12 13 14 15 16 17 18 19 20 21 22 23 24 25 26 27 28 29 30 31 32 33 34 35 36 37 38 39 40 41 42 43 44 45 46 47 48 49 50

000
ASUS42 KMHX 300613
RWRMHX
WEATHER ROUNDUP FOR EASTERN NORTH CAROLINA
NATIONAL WEATHER SERVICE NEWPORT/MOREHEAD CITY NC
200 AM EDT THU JUL 30 2015

NOTE: "FAIR" INDICATES FEW OR NO CLOUDS BELOW 12,000 FEET
WITH NO SIGNIFICANT WEATHER AND/OR OBSTRUCTIONS TO VISIBILITY

NCZ015>017-031-032-045>047-102-103-300700-
NORTH COAST

CITY           SKY/WX    TMP DP  RH WIND       PRES   REMARKS
EDENTON        CLEAR     72  69  92 CALM      29.98F
ELIZABETH CITY CLEAR     73  70  90 CALM      29.98F
KITTY HAWK     CLEAR     78  72  81 E3        29.97F
MANTEO         PTCLDY    76  73  90 E6        29.98F

$$

NCZ045>047-081-094-103-104-300700-
CENTRAL COAST

CITY           SKY/WX    TMP DP  RH WIND       PRES   REMARKS
FRISCO         CLEAR     80  77  90 E3        29.96F
SWANQUARTER      N/A     75 N/A N/A NE3       29.91F

$$

NCZ095-097-098-100-101-300700-
SOUTHERN COAST

CITY           SKY/WX    TMP DP  RH WIND       PRES   REMARKS
BEAUFORT       CLEAR     77  76  96 NE5       29.94F
CEDAR ISLAND     N/A     82 N/A N/A NE3G10    29.97F
JACKSONVILLE   CLEAR     76  71  85 NW7       29.95F
PINEY ISLAND   PTCLDY   N/A N/A N/A MISG      29.94F
WILMINGTON     CLEAR     74  72  93 N3        29.96F


$$

NCZ011>013-027>030-043-044-078>080-089-090>093-098-300700-
COASTAL PLAIN

CITY           SKY/WX    TMP DP  RH WIND       PRES   REMARKS
AHOSKIE        CLEAR     72  69  90 CALM      29.99S
CLINTON        CLEAR     74  73  96 CALM      29.98S
ELIZABETHTOWN  CLEAR     74  71  88 CALM      29.98R
GOLDSBORO      CLEAR     74  72  91 S1        29.95F
GREENVILLE     CLEAR     73  72  94 CALM      29.99F
HAVELOCK       CLEAR     78  75  90 NE3       29.95F
KENANSVILLE    CLEAR     71  69  95 CALM      29.98F
KINSTON        CLEAR     72  70  92 CALM      29.97F
NEW BERN       CLEAR     74  71  91 N3        29.97F
RICHLANDS      CLEAR     72  64  78 CALM      29.97F
ROCKY MOUNT    CLEAR     73  71  93 CALM      29.98F
WASHINGTON     CLEAR     71  69  95 E3        29.98F
WHITEVILLE     CLEAR     74  71  91 CALM      29.97S

$$

AMZ130-135-150-152-154-156-158-170-250-252-270-ANZ085-086-088-633-658-670-300700-
MARINE OBSERVATIONS

STATION/POSITION TIME  TEMP    WIND        PRES    WAVE   SWELL
                       AIR SEA DIR/SP/G            HT/PER HT/PER
                 (UTC) (F)     (DEG/KT/KT) (MB)    (FT/S) (FT/S)
CHESAPEAKE LIGHT 0600   80     160/ 13/ 13 1015.7
64 E VA BEACH    0550   81 82  140/ 10/ 12 1015.3    3/ 6   2/ 6
DUCK             0500   76                   N/A
2 E DUCK         0511      73                N/A     2/ 5
OREGON INLET     0500   79                   N/A
13E OREGON INLT  0600      81                N/A     3/ 6
HATTERAS CG      0500   81                   N/A
DIAMOND BUOY     0550   83 85  150/ 12/ 16 1014.3    3/ 6   2/ 7
CAPE LOOKOUT     0600   81      40/ 10/ 11 1013.4
BEAUFORT LAB     0500   79                   N/A
30 SE NEW RVR IN NOT AVBL
27 SE WRIGHTSVLE NOT AVBL
5 SE WRIGHTSVLE  NOT AVBL
225 S CAPE HAT   0550   81 81  190/ 19/ 23 1014.8    7/ 8
41 SE CHARLESTON 0550   83 84   50/  6/  8 1013.7    3/ 6   3/ 6

$$


USA.gov is the U.S. government's official web portal to all federal, state and local government web resources and services.